User: anonymous
Location: Stigler
(35.2540°N, 95.1230°W)
Time: 06:40:24
(UTC-05:00)
Language:

Cosmos 1805 - Orbit

View from above orbital plane
View from above orbital plane
View from above satellite
View from above satellite

Ground track
Ground track

The orbit data is extracted from the following two-line orbital elements,

1 17191U 86097A   14261.14985374  .00002341  00000-0  15127-3 0  9869
2 17191 082.4959 294.8969 0006321 240.7148 119.3449 15.07777159512236
Epoch (UTC): 18 September 2014 03:35:47
Eccentricity: 0.0006321
inclination: 82.4959°
perigee height: 538 km
apogee height: 547 km
right ascension of ascending node: 294.8969°
argument of perigee: 240.7148°
revolutions per day: 15.07777159
mean anomaly at epoch: 119.3449°
orbit number at epoch: 51223

The dashed part of the orbit path shows where the satellite is in the earth's shadow,  

DLR